User: anonymous
Location: Elk Forest
(39.5314°N, 75.8738°W)
Time: 04:45:21
(UTC-04:00)
Language:

Resurs 01 Rocket - Orbit

View from above orbital plane
View from above orbital plane
View from above satellite
View from above satellite

Ground track
Ground track

The orbit data is extracted from the following two-line orbital elements,

1 23343U 94074B   14105.09969506  .00000456  00000-0  73834-4 0  9752
2 23343 098.2238 107.8869 0007484 173.7489 228.3192 14.76065379 45790
Epoch (UTC): 15 April 2014 02:23:33
Eccentricity: 0.0007484
inclination: 98.2238°
perigee height: 636 km
apogee height: 647 km
right ascension of ascending node: 107.8869°
argument of perigee: 173.7489°
revolutions per day: 14.76065379
mean anomaly at epoch: 228.3192°
orbit number at epoch: 4579

The dashed part of the orbit path shows where the satellite is in the earth's shadow,  

DLR